Waarnemingen

Advertentie
Mijn weer
Vilhelmina, Zweden (2245): temperatuur & dauwpunt: 10.07.2018 16:00:00 - 16.07.2018 16:00:00 (CEST)Vilhelmina, Zweden (2245): windsnelheid & windstoten: 10.07.2018 16:00:00 - 16.07.2018 16:00:00 (CEST)Vilhelmina, Zweden (2245): windrichting: 10.07.2018 16:00:00 - 16.07.2018 16:00:00 (CEST)Vilhelmina, Zweden (2245): luchtdruk: 10.07.2018 16:00:00 - 16.07.2018 16:00:00 (CEST)Vilhelmina, Zweden (2245): zicht: 10.07.2018 16:00:00 - 16.07.2018 16:00:00 (CEST)Vilhelmina, Zweden (2245): neerslag: 10.07.2018 16:00:00 - 16.07.2018 16:00:00 (CEST)
Datum & Tijd tt [°C] td [°C] ff [km/u] ff [kn] fx [km/u] fx [kn] dd ppp [hPa] vv [km] rr [mm]
16.07.2018 16:00:00 28,0 11,0 8 4 - - Z - 10 -
16.07.2018 15:00:00 27,6 11,2 8 4 22 12 ZW 1014,6 10 0,0
16.07.2018 14:00:00 26,7 12,0 9 5 22 12 ZZW 1015,2 10 0,0
16.07.2018 13:00:00 26,3 11,6 11 6 22 12 ZW 1015,5 10 0,0
16.07.2018 12:00:00 25,1 11,6 4 2 15 8 - 1015,9 10 0,0
16.07.2018 11:00:00 23,7 11,7 8 4 14 8 WZW 1016,3 10 0,0
16.07.2018 10:00:00 22,4 11,5 0 0 9 5 N 1016,8 10 0,0
16.07.2018 09:00:00 20,5 12,0 0 0 6 3 N 1017,2 10 0,0
16.07.2018 08:00:00 18,2 11,3 0 0 8 4 N 1017,6 10 0,0
16.07.2018 07:00:00 15,2 11,6 0 0 6 3 N 1018,3 10 0,0
16.07.2018 06:00:00 13,3 10,7 0 0 3 2 N 1018,7 10 0,0
16.07.2018 05:00:00 9,9 8,7 0 0 6 4 N 1019,1 10 0,0
16.07.2018 04:00:00 8,5 8,2 4 2 7 4 OZO 1019,3 10 0,0
16.07.2018 03:00:00 8,2 7,6 0 0 4 2 N 1019,2 10 0,0
16.07.2018 02:00:00 9,1 8,8 5 3 6 3 O 1018,9 10 0,0
16.07.2018 01:00:00 9,5 8,6 0 0 5 3 N 1018,4 10 0,0
16.07.2018 00:00:00 11,3 10,5 0 0 4 2 N 1017,7 10 0,0
15.07.2018 23:00:00 13,1 10,8 0 0 4 2 N 1016,9 10 0,0
15.07.2018 22:00:00 16,3 11,7 0 0 10 5 N 1015,9 10 0,0
15.07.2018 21:00:00 20,7 10,2 8 4 12 7 WNW 1014,8 10 0,0
15.07.2018 20:00:00 21,2 10,1 7 4 16 9 WNW 1014,5 50 0,0
15.07.2018 19:00:00 22,6 10,1 9 5 21 11 NW 1014,1 10 0,0
15.07.2018 18:00:00 22,6 9,4 13 7 27 14 WNW 1014,0 10 0,0
15.07.2018 17:00:00 22,1 9,3 15 8 26 14 W 1014,0 10 0,0
15.07.2018 16:00:00 22,3 9,1 16 9 30 16 W 1013,9 10 0,0
15.07.2018 15:00:00 22,0 8,1 15 8 28 15 W 1013,7 10 0,0
15.07.2018 14:00:00 23,2 7,7 9 5 24 13 W 1013,2 10 0,0
15.07.2018 13:00:00 21,7 7,5 8 4 19 10 W 1013,1 10 0,0
15.07.2018 12:00:00 21,5 6,2 13 7 21 12 WNW 1013,0 10 0,0
15.07.2018 11:00:00 20,9 9,2 11 6 21 11 W 1013,0 10 0,0
15.07.2018 10:00:00 20,5 11,7 9 5 18 10 W 1012,7 10 0,0
15.07.2018 09:00:00 18,7 10,8 8 4 14 8 W 1012,6 10 0,0
15.07.2018 08:00:00 17,6 12,5 8 4 11 6 W 1012,6 10 0,0
15.07.2018 07:00:00 17,4 13,5 0 0 9 5 N 1012,0 10 0,0
15.07.2018 06:00:00 14,4 12,8 5 3 8 5 W 1012,7 10 0,0
15.07.2018 05:00:00 12,5 11,6 0 0 7 4 N 1012,7 10 0,0
15.07.2018 04:00:00 12,1 11,5 0 0 9 5 N 1012,5 10 0,0
15.07.2018 03:00:00 11,5 11,0 5 3 9 5 O 1012,4 10 0,0
15.07.2018 02:00:00 10,6 10,0 0 0 4 2 N 1012,6 10 0,0
15.07.2018 01:00:00 11,6 10,7 0 0 4 2 N 1012,1 10 0,0
15.07.2018 00:00:00 12,9 11,6 0 0 2 1 N 1011,8 10 0,0
14.07.2018 23:00:00 15,1 12,4 0 0 3 1 N 1011,2 10 0,0
14.07.2018 22:00:00 18,3 13,2 0 0 2 1 N 1010,6 10 0,0
14.07.2018 21:00:00 22,4 12,3 0 0 14 7 N 1009,8 10 0,0
14.07.2018 20:00:00 24,8 9,9 5 3 11 6 - 1009,5 10 0,0
14.07.2018 19:00:00 24,7 9,8 9 5 20 11 W 1009,4 10 0,0
14.07.2018 18:00:00 24,9 9,2 13 7 23 12 W 1009,5 10 0,0
14.07.2018 17:00:00 25,3 9,2 13 7 27 15 W 1009,6 10 0,0
14.07.2018 16:00:00 25,2 8,6 16 9 31 17 WZW 1009,9 10 0,0
14.07.2018 15:00:00 24,7 9,4 16 9 27 14 W 1010,2 10 0,0
14.07.2018 14:00:00 24,6 10,1 15 8 25 14 W 1010,6 10 0,0
14.07.2018 13:00:00 23,4 9,4 13 7 22 12 W 1011,1 10 0,0
14.07.2018 12:00:00 22,0 10,5 9 5 21 11 WZW 1011,6 10 0,0
14.07.2018 11:00:00 20,8 9,4 11 6 20 11 W 1012,2 10 0,0
14.07.2018 10:00:00 19,0 12,3 9 5 14 7 W 1012,6 10 0,0
14.07.2018 09:00:00 17,6 13,1 5 3 11 6 W 1013,0 10 0,0
14.07.2018 08:00:00 15,3 12,1 9 5 11 6 W 1013,5 10 0,0
14.07.2018 07:00:00 12,3 12,1 0 0 4 2 N 1014,1 10 0,0
14.07.2018 06:00:00 9,2 9,2 0 0 4 2 N 1014,5 0,1 0,0
14.07.2018 05:00:00 8,1 8,1 0 0 3 2 N 1014,7 0,2 0,0
14.07.2018 04:00:00 7,7 7,6 0 0 4 2 N 1014,9 0,2 0,0
14.07.2018 03:00:00 7,7 7,6 0 0 4 2 N 1014,9 0,4 0,0
14.07.2018 02:00:00 8,4 8,0 0 0 3 2 N 1014,9 10 0,0
14.07.2018 01:00:00 9,6 9,1 0 0 3 2 N 1014,8 0,7 0,0
14.07.2018 00:00:00 11,6 11,1 0 0 4 2 N 1014,7 10 0,0
13.07.2018 23:00:00 13,0 12,4 4 2 6 3 - 1014,3 10 0,0
13.07.2018 22:00:00 14,3 12,7 0 0 8 4 N 1014,1 10 0,0
13.07.2018 21:00:00 17,2 12,1 4 2 12 7 - 1013,4 10 0,0
13.07.2018 20:00:00 16,6 13,9 2 1 10 5 WZW 1013,5 10 0,0
13.07.2018 19:00:00 16,6 13,7 8 4 14 8 WNW 1013,8 10 0,0
13.07.2018 18:00:00 17,3 13,4 5 3 12 6 - 1014,0 10 0,0
13.07.2018 17:00:00 15,6 13,1 8 4 17 9 ZZW 1014,1 10 2,1
13.07.2018 16:00:00 15,9 11,9 4 2 20 11 - 1014,4 10 1,2
13.07.2018 15:00:00 15,9 11,1 8 4 22 12 ZZO 1014,2 10 0,0
13.07.2018 14:00:00 16,7 9,9 11 6 39 21 ZZO 1014,0 10 0,0
13.07.2018 13:00:00 18,3 11,6 13 7 34 19 ONO 1013,7 10 0,0
13.07.2018 12:00:00 22,6 10,4 13 7 25 13 W 1012,7 10 0,0
13.07.2018 11:00:00 22,0 10,2 16 9 26 14 W 1013,0 10 0,0
13.07.2018 10:00:00 21,8 10,3 8 4 13 7 W 1013,5 10 0,0
13.07.2018 09:00:00 21,0 11,3 5 3 11 6 WNW 1013,7 10 0,0
13.07.2018 08:00:00 18,8 13,4 4 2 10 5 - 1014,0 10 0,0
13.07.2018 07:00:00 17,7 11,9 5 3 11 6 WNW 1014,4 10 0,0
13.07.2018 06:00:00 16,1 11,3 4 2 7 4 - 1014,6 10 0,0
13.07.2018 05:00:00 14,5 11,5 0 0 3 2 N 1015,0 10 0,0
13.07.2018 04:00:00 10,4 9,0 0 0 3 2 N 1015,6 10 0,0
13.07.2018 03:00:00 10,7 9,0 0 0 4 2 N 1015,5 10 0,0
13.07.2018 02:00:00 12,4 9,9 5 3 6 3 - 1015,3 10 0,0
13.07.2018 01:00:00 13,4 10,4 0 0 5 3 N 1015,3 10 0,0
13.07.2018 00:00:00 14,8 10,2 5 3 13 7 - 1015,1 10 0,0
12.07.2018 23:00:00 17,4 10,0 5 3 11 6 - 1014,7 10 0,0
12.07.2018 22:00:00 19,6 10,0 5 3 12 7 Z 1014,3 10 0,0
12.07.2018 21:00:00 20,8 9,4 8 4 21 12 Z 1014,0 10 0,0
12.07.2018 20:00:00 22,2 9,4 9 5 29 16 ZZW 1013,3 10 0,0
12.07.2018 19:00:00 23,7 9,3 16 9 27 15 ZW 1013,2 10 0,0
12.07.2018 18:00:00 24,3 8,7 11 6 20 11 ZZW 1013,3 10 0,0
12.07.2018 17:00:00 25,4 8,0 11 6 22 12 ZZW 1013,2 10 0,0
12.07.2018 16:00:00 24,8 7,9 5 3 21 11 - 1013,7 10 0,0
12.07.2018 15:00:00 25,2 7,3 4 2 21 11 - 1014,1 10 0,0
12.07.2018 14:00:00 24,3 7,4 9 5 21 11 - 1014,6 10 0,0
12.07.2018 13:00:00 22,8 7,3 9 5 30 16 Z 1015,4 10 0,0
12.07.2018 12:00:00 23,3 6,6 15 8 29 16 Z 1015,6 10 0,0
12.07.2018 11:00:00 22,6 6,8 13 7 26 14 Z 1015,9 10 0,0
12.07.2018 10:00:00 22,2 8,0 11 6 26 14 Z 1016,1 10 0,0
12.07.2018 09:00:00 21,7 8,9 11 6 20 11 ZZO 1016,4 10 0,0
12.07.2018 08:00:00 20,0 9,6 8 4 13 7 - 1016,8 10 0,0
12.07.2018 07:00:00 18,1 10,0 5 3 10 5 - 1017,4 10 0,0
12.07.2018 06:00:00 14,7 9,9 0 0 3 1 N 1018,1 10 0,0
12.07.2018 05:00:00 10,6 8,5 0 0 2 1 N 1019,1 10 0,0
12.07.2018 04:00:00 8,2 7,0 0 0 3 2 N 1019,7 10 0,0
12.07.2018 03:00:00 8,0 6,8 0 0 4 2 N 1019,8 10 0,0
12.07.2018 02:00:00 9,2 7,1 5 3 5 3 O 1019,8 10 0,0
12.07.2018 01:00:00 10,3 7,7 0 0 6 3 N 1019,8 10 0,0
12.07.2018 00:00:00 11,9 9,3 0 0 8 5 N 1019,6 10 0,0
11.07.2018 23:00:00 14,9 9,5 0 0 6 3 N 1019,0 10 0,0
11.07.2018 22:00:00 18,3 10,4 4 2 12 7 O 1018,5 10 0,0
11.07.2018 21:00:00 23,4 8,3 5 3 16 9 ZO 1017,7 10 0,0
11.07.2018 20:00:00 25,0 6,7 11 6 20 11 OZO 1017,2 10 0,0
11.07.2018 19:00:00 25,9 6,5 13 7 23 12 OZO 1017,2 10 0,0
11.07.2018 18:00:00 26,1 6,2 13 7 26 14 O 1017,5 10 0,0
11.07.2018 17:00:00 26,7 7,7 4 2 16 8 - 1017,6 10 0,0
11.07.2018 16:00:00 24,9 8,0 13 7 21 11 OZO 1018,4 10 0,0
11.07.2018 15:00:00 25,8 10,0 13 7 26 14 OZO 1018,6 10 0,0
11.07.2018 14:00:00 24,9 10,4 8 4 22 12 - 1019,3 10 0,0
11.07.2018 13:00:00 25,1 9,4 11 6 25 14 ZO 1019,5 10 0,0
11.07.2018 12:00:00 25,6 11,4 8 4 15 8 ZZO 1019,8 10 0,0
11.07.2018 11:00:00 24,8 11,7 4 2 15 8 - 1020,4 10 0,0
11.07.2018 10:00:00 22,8 13,0 4 2 7 4 - 1021,0 10 0,0
11.07.2018 09:00:00 20,0 12,5 0 0 6 3 N 1021,4 10 0,0
11.07.2018 08:00:00 18,0 12,9 4 2 6 3 W 1022,1 10 0,0
11.07.2018 07:00:00 16,4 12,7 4 2 11 6 W 1022,3 10 0,0
11.07.2018 06:00:00 14,5 12,0 5 3 11 6 - 1022,9 10 0,0
11.07.2018 05:00:00 11,6 10,8 4 2 5 3 W 1023,2 10 0,0
11.07.2018 04:00:00 11,0 10,7 5 3 13 7 - 1023,5 10 0,0
11.07.2018 03:00:00 11,4 10,3 0 0 6 3 N 1023,0 10 0,0
11.07.2018 02:00:00 12,2 11,6 0 0 10 6 N 1022,8 10 0,0
11.07.2018 01:00:00 13,1 11,5 0 0 2 1 N 1022,8 10 0,0
11.07.2018 00:00:00 15,5 13,3 0 0 5 3 N 1022,5 10 0,0
10.07.2018 23:00:00 16,5 13,6 0 0 2 1 N 1022,2 10 0,0
10.07.2018 22:00:00 19,2 14,7 0 0 2 1 N 1021,6 10 0,0
10.07.2018 21:00:00 21,1 14,7 0 0 3 2 N 1021,3 10 0,0
10.07.2018 20:00:00 23,0 13,5 0 0 9 5 N 1020,9 10 0,0
10.07.2018 19:00:00 24,7 9,0 0 0 7 4 N 1020,6 10 0,0
10.07.2018 18:00:00 24,8 8,7 4 2 9 5 - 1020,8 10 0,0
10.07.2018 17:00:00 24,8 8,3 4 2 9 5 - 1021,1 10 0,0
10.07.2018 16:00:00 24,1 10,0 9 5 15 8 O 1021,5 10 0,0

tt = temperatuur
td = dauwpunt
ff = windsnelheid
fx = windstoten
dd = windrichting
ppp = luchtdruk
vv = zicht
rr = neerslag

Weerstations in de omgeving